Content
SEND FEEDBACK

Daily
Averages
Monthly
Summary
United States of America

NEW YORK - CENTRAL PARK, NEW YORK


Home > North America > United States > New York
Elevation: 14 feet     Latitude: 40 47N     Longitude: 073 58W

WEATHER
 
SELECT A DAY
Number of Records: 148,086;   Date Range: 11/1/95 - 7/26/14
 
SHARE

PRINT THIS DATA

[ ← Previous Day ]
WEATHER ALMANAC - NOVEMBER 6, 2013
[ Next Day → ]
[ °C ]   °F
Weather ElementAverageHighLow
Temperature55.3 °F60.1 °F (1:51 pm)50 °F (3:19 am)
Dewpoint44.1 °F51.1 °F (10:51 pm)39.9 °F (8:51 am)
Humidity66.6 %81 % (10:51 pm)49 % (2:51 pm)
Barometer30.31 in30.48 in (1:51 am)30.07 in (11:51 pm)
Wind Speed3.2 mph6.9 mph (11:51 am)
Weather ElementAverage
Visibility10 mi
Wind DirectionNNE (20.8 °)

Weather ElementTotal
Precipitation---
Heating Degree Days10 (Base 65)
Growing Degree Days5.1 (Base 50)
Averaged from 25 records on November 6, 2013
WEATHER CONDITIONS BREAKOUT
WIND DIRECTION BREAKOUT
WEATHER BY HOUR - NOVEMBER 6, 2013
[ °C ]   °F
Local TimeTemperatureDewpointHumidityBarometerVisibilityWind DirectionWind SpeedGust SpeedPrecipitationEventsConditions
1:51 AM51.1 °F42.1 °F71 %30.48 in10.0 miVariable3.5 mphScattered Clouds
2:51 AM51.1 °F42.1 °F71 %30.46 in10.0 miCalmPartly Cloudy
3:12 AM51.1 °F42.1 °F71 %30.47 in10.0 miCalmMostly Cloudy
3:19 AM50.0 °F42.1 °F74 %30.48 in10.0 miCalmScattered Clouds
3:51 AM50.0 °F42.1 °F74 %30.45 in10.0 miCalmScattered Clouds
4:51 AM51.1 °F42.1 °F71 %30.44 in10.0 miCalmClear
5:51 AM50.0 °F42.1 °F74 %30.43 in10.0 miVariable3.5 mphScattered Clouds
6:51 AM50.0 °F43.0 °F77 %30.43 in10.0 miVariable3.5 mphClear
7:51 AM53.1 °F43.0 °F69 %30.42 in10.0 miVariable3.5 mphClear
8:51 AM55.9 °F39.9 °F55 %30.40 in10.0 miNorthOvercast
9:51 AM57.9 °F39.9 °F51 %30.37 in10.0 miNorthOvercast
10:51 AM59.0 °F42.1 °F53 %30.37 in10.0 miVariable4.6 mphOvercast
11:51 AM59.0 °F43.0 °F55 %30.33 in10.0 miVariable6.9 mphOvercast
12:51 PM59.0 °F42.1 °F53 %30.29 in10.0 miVariable4.6 mphOvercast
1:51 PM60.1 °F42.1 °F51 %30.27 in10.0 miSouth (170°)4.6 mphScattered Clouds
2:51 PM60.1 °F41.0 °F49 %30.25 in10.0 miCalmClear
3:51 PM57.9 °F44.1 °F60 %30.25 in10.0 miVariable6.9 mphClear
4:51 PM55.9 °F46.0 °F69 %30.22 in10.0 miSouth (170°)5.8 mphClear
5:51 PM57.0 °F46.9 °F69 %30.20 in10.0 miVariable6.9 mphClear
6:51 PM57.9 °F46.9 °F67 %30.19 in10.0 miVariable3.5 mphClear
7:51 PM57.9 °F46.9 °F67 %30.17 in10.0 miVariable5.8 mphClear
8:51 PM57.0 °F48.9 °F74 %30.15 in10.0 miSouth (180°)5.8 mphClear
9:51 PM57.0 °F50.0 °F77 %30.13 in10.0 miVariable3.5 mphClear
10:51 PM57.0 °F51.1 °F81 %30.09 in10.0 miCalmMostly Cloudy
11:51 PM57.0 °F51.1 °F81 %30.07 in10.0 miCalmClear
Hourly data recorded from KNYC, located miles away from New York - Central Park, New York







STORIES FROM OUR PARTNERS